Weatherford, Texas, United States (76085)
Lat: 32.76N, Lon: 97.8W
Wx Zone: TXZ117
Local Info
Past Weather Observations for Yesterday

NOTE: This archive is for the closest National Weather Service station to Weatherford. Information may differ from the station used for current weather conditions.

Click here for Long-term Archive

Time Weather Temperature Dewpoint Humidity Pressure Winds Precip Visibility
23:53
Overcast
Fog And Mist
43°F / 6°C 43°F / 6°C 100% 30.12 in
(1020 mb)
SE 6.9 mph
(SE 11 kph)
- 3SM
23:28
Overcast
Fog And Mist
43°F / 6°C 43°F / 6°C 100% 30.12 in
(1020 mb)
SE 8.1 mph
(SE 13 kph)
- 5SM
22:53
Overcast
Fog And Mist
43°F / 6°C 43°F / 6°C 100% 30.12 in
(1020 mb)
SE 8.1 mph
(SE 13 kph)
- 4SM
22:41
Overcast
Fog And Mist
43°F / 6°C 43°F / 6°C 100% 30.12 in
(1020 mb)
SE 8.1 mph
(SE 13 kph)
- 4SM
22:26
Overcast
Fog And Mist
43°F / 6°C 43°F / 6°C 100% 30.12 in
(1020 mb)
SE 8.1 mph
(SE 13 kph)
- 3SM
22:14
Overcast
Fog And Mist
43°F / 6°C 43°F / 6°C 100% 30.12 in
(1020 mb)
ESE 5.8 mph
(ESE 9 kph)
- 2 1/2SM
21:53
Overcast
Fog And Mist
43°F / 6°C 43°F / 6°C 100% 30.12 in
(1020 mb)
ESE 6.9 mph
(ESE 11 kph)
- 1 1/2SM
21:38
Overcast
Fog And Mist
43°F / 6°C 43°F / 6°C 100% 30.12 in
(1020 mb)
E 6.9 mph
(E 11 kph)
- 1 3/4SM
21:11
Overcast
Fog And Mist
43°F / 6°C 43°F / 6°C 100% 30.15 in
(1021 mb)
ENE 3.5 mph
(ENE 6 kph)
- 2 1/2SM
20:53
Overcast
Fog And Mist
43°F / 6°C 43°F / 6°C 100% 30.12 in
(1020 mb)
SE 6.9 mph
(SE 11 kph)
- 4SM
20:39
Overcast
Fog And Mist
43°F / 6°C 43°F / 6°C 100% 30.12 in
(1020 mb)
E 5.8 mph
(E 9 kph)
- 3SM
19:53
Overcast
Fog And Mist
43°F / 6°C 43°F / 6°C 100% 30.12 in
(1020 mb)
ESE 4.6 mph
(ESE 7 kph)
0.01 in
(0.25 mm)
2SM
19:26
Overcast
Light Rain
43°F / 6°C 43°F / 6°C 100% 30.12 in
(1020 mb)
E 6.9 mph
(E 11 kph)
0.00 in
(0.00 mm)
1 3/4SM
19:22
Overcast
Light Rain
43°F / 6°C 43°F / 6°C 100% 30.12 in
(1020 mb)
E 4.6 mph
(E 7 kph)
0.00 in
(0.00 mm)
2SM
18:53
Overcast
Fog And Mist
43°F / 6°C 41°F / 5°C 93% 30.09 in
(1019 mb)
E 9.2 mph
(E 15 kph)
- 3SM
18:49
Overcast
Fog And Mist
43°F / 6°C 41°F / 5°C 93% 30.09 in
(1019 mb)
ESE 10.4 mph
(ESE 17 kph)
- 3SM
18:35
Overcast
Fog And Mist
43°F / 6°C 41°F / 5°C 93% 30.09 in
(1019 mb)
ESE 8.1 mph
(ESE 13 kph)
- 2 1/2SM
17:53
Overcast
Fog And Mist
43°F / 6°C 41°F / 5°C 93% 30.09 in
(1019 mb)
E 5.8 mph
(E 9 kph)
0.00 in
(0.00 mm)
4SM
16:53
Overcast
Light Rain
43°F / 6°C 41°F / 5°C 93% 30.09 in
(1019 mb)
E 8.1 mph
(E 13 kph)
0.05 in
(1.27 mm)
3SM
16:43
Overcast
Light Rain
43°F / 6°C 41°F / 5°C 93% 30.09 in
(1019 mb)
E 8.1 mph
(E 13 kph)
0.05 in
(1.27 mm)
3SM
16:18
Overcast
Light Rain
43°F / 6°C 41°F / 5°C 93% 30.09 in
(1019 mb)
ENE 5.8 mph
(ENE 9 kph)
0.04 in
(1.02 mm)
3SM
15:53
Overcast
Light Rain
45°F / 7°C 41°F / 5°C 87% 30.09 in
(1019 mb)
NE 3.5 mph
(NE 6 kph)
0.06 in
(1.52 mm)
1 1/2SM
15:47
Overcast
Heavy Rain
45°F / 7°C 39°F / 4°C 81% 30.09 in
(1019 mb)
NE 3.5 mph
(NE 6 kph)
0.05 in
(1.27 mm)
1 3/4SM
15:08
Overcast
Light Rain
45°F / 7°C 39°F / 4°C 81% 30.06 in
(1018 mb)
Calm 0.00 in
(0.00 mm)
10SM
14:53
Overcast
Light Rain
45°F / 7°C 39°F / 4°C 81% 30.06 in
(1018 mb)
SE 3.5 mph
(SE 6 kph)
0.09 in
(2.29 mm)
9SM
14:43
Overcast
Light Rain
45°F / 7°C 39°F / 4°C 81% 30.06 in
(1018 mb)
SSE 3.5 mph
(SSE 6 kph)
0.09 in
(2.29 mm)
4SM
14:35
Overcast
Light Rain
45°F / 7°C 39°F / 4°C 81% 30.09 in
(1019 mb)
S 4.6 mph
(S 7 kph)
0.08 in
(2.03 mm)
2SM
14:19
Overcast
Light Rain
45°F / 7°C 37°F / 3°C 76% 30.06 in
(1018 mb)
SSE 5.8 mph
(SSE 9 kph)
0.03 in
(0.76 mm)
10SM
14:02
Overcast
Thunder Storms
45°F / 7°C 37°F / 3°C 76% 30.06 in
(1018 mb)
SE 8.1 mph
(SE 13 kph)
0.02 in
(0.51 mm)
3SM
13:53
Overcast
46°F / 8°C 36°F / 2°C 66% 30.06 in
(1018 mb)
SSE 8.1 mph
(SSE 13 kph)
0.01 in
(0.25 mm)
8SM
13:21
Overcast
Light Rain
45°F / 7°C 37°F / 3°C 76% 30.06 in
(1018 mb)
SE 13.8 mph
(SE 22 kph)
0.00 in
(0.00 mm)
10SM
12:53
Overcast
45°F / 7°C 36°F / 2°C 71% 30.12 in
(1020 mb)
SE 15 mph
(SE 24 kph)
0.01 in
(0.25 mm)
10SM
11:53
Overcast
45°F / 7°C 36°F / 2°C 71% 30.15 in
(1021 mb)
ESE 11.5 mph
(ESE 19 kph)
0.00 in
(0.00 mm)
10SM
10:53
Overcast
45°F / 7°C 36°F / 2°C 71% 30.21 in
(1023 mb)
ESE 12.7 mph
(ESE 20 kph)
0.01 in
(0.25 mm)
10SM
09:53
Overcast
45°F / 7°C 34°F / 1°C 66% 30.21 in
(1023 mb)
SE 9.2 mph
(SE 15 kph)
- 10SM
08:53
Overcast
45°F / 7°C 34°F / 1°C 66% 30.21 in
(1023 mb)
ESE 9.2 mph
(ESE 15 kph)
0.00 in
(0.00 mm)
10SM
07:53
Overcast
45°F / 7°C 34°F / 1°C 66% 30.21 in
(1023 mb)
ESE 9.2 mph
(ESE 15 kph)
0.00 in
(0.00 mm)
10SM
06:53
Overcast
Light Rain
45°F / 7°C 34°F / 1°C 66% 30.21 in
(1023 mb)
ESE 11.5 mph
(ESE 19 kph)
0.00 in
(0.00 mm)
10SM
05:53
Overcast
45°F / 7°C 32°F / 0°C 61% 30.21 in
(1023 mb)
SE 11.5 mph
(SE 19 kph)
- 10SM
04:53
Overcast
45°F / 7°C 32°F / 0°C 61% 30.24 in
(1024 mb)
ESE 5.8 mph
(ESE 9 kph)
- 10SM
03:53
Overcast
45°F / 7°C 36°F / 2°C 71% 30.24 in
(1024 mb)
E 4.6 mph
(E 7 kph)
- 10SM
02:53
Overcast
45°F / 7°C 36°F / 2°C 71% 30.24 in
(1024 mb)
Calm - 10SM
01:53
Overcast
43°F / 6°C 36°F / 2°C 76% 30.24 in
(1024 mb)
Calm - 10SM
00:53
Overcast
43°F / 6°C 34°F / 1°C 71% 30.27 in
(1025 mb)
SE 3.5 mph
(SE 6 kph)
- 10SM
Time Weather Temperature Dewpoint Humidity Pressure Winds Precip Visibility


Weather for websites

WeatherForYou.com, LLC is not responsible for any damages or problems caused by this service. Current weather conditions are obtained from the closest station including government and personal stations which may have varying degrees of accuracy. Weather forecasts are derived from the NOAA NDFD. Like all things, this site belongs to Jesus Christ... He just trusts me to maintain it. If you have any questions or comments email webmaster@weatherforyou.com

Copyright © 2014, WeatherForYou.com LLC. All rights reserved.